Погода в Кирсе

Погода в Кирсе : погода сейчас, прогноз погоды и архив. Всё, что Вы хотите узнать о погоде в Кирсе!

Поиск расширенной информации на нашем сайте:

Другие новости

Новости СМИ2

Главная страница сайта

Новости сайта

03.07.2017

Напоминаем, что на нашем специализированном сайте Метеоцентр.Азия вы можете получить высокодетализированные автоматические прогнозы погоды по пунктам России, СНГ и мира в авиационном формате (включающие направление и скорость ветра, видимость, явления погоды, количество и форму облачности, нижнюю и верхнюю границу облачности).

Рекомендуем: Информация кухня на заказ уфа здесь.

Погода в Кирсе - сегодня

Время (UTC), дата Ветер
(°,м/с) 
Видим.   Явления Облачность Т
(°С)
Тd
(°С)
f(%) Тe
(°С)
Pmin
(гПа)
dP
(гПа)
Po
(мм)
O2
(г/м3)
Тmin Tmax R s Состояние
почвы
03 10.02.18 тихо () -0{00}  20000 м    10/0 верхняя 
[Ci fib]
-17.5 -19.4 85 -18  1038.6  -0.4  762  329  -19.1      52  неравномерный
сухой снег
100% 
15 10.02.18 тихо () -0{00}  4000 м  дымка  10/0 верхняя 
[Cs]
-12.6 -13.9 90 -13  1036.9  761  323    -6.3       
21 10.02.18 тихо () -0{00}  20000 м    ясно 
-17.1 -19 85 -17  1035.8  -0.3  760  328           
03 11.02.18 тихо () -0{01}  20000 м    4/0 верхняя 
[Ci fib]
-20.9 -23.4 80 -21  1035.4  -0.1  759  333  -21      51  неравномерный
сухой снег
100% 
15 11.02.18 тихо () -0{05}  20000 м    4/0 верхняя 
[Ci fib]
-13.1 -15.8 80 -13  1032.4  -0.5  757  322    -5.3       
18 11.02.18 тихо () -0{06}  20000 м    ясно 
-16.5 -18.4 85 -17  1031.9  -0.8  757  326           
21 11.02.18 тихо () -0{00}  20000 м    ясно 
-18.3 -19.5 90 -18  1031.8  -0.3  757  328           
03 12.02.18 тихо () -0{00}  20000 м    ясно 
-21.5 -22.7 90 -22  1032.4  0.5  757  333  -21.7      51  неравномерный
сухой снег
100% 
15 12.02.18 тихо () -0{00}  20000 м    10/0 верхняя 
[Ci fib]
-14.4 -17.1 80 -14  1031.3  756  323    -7.5       
18 12.02.18 тихо () -0{00}  20000 м    ясно 
-18.5 -21.1 80 -19  1031.7  756  329           
21 12.02.18 тихо () -0{00}  20000 м    ясно 
-21 -23.5 80 -21  1032.2  0.3  757  332           
03 13.02.18 тихо () -0{00}  20000 м    ясно 
-23.8 -27 75 -24  1033.1  0.2  757  336  -23.9      51  неравномерный
сухой снег
100% 
18 13.02.18 тихо () -0{00}  20000 м    ясно 
-18.7 -20.6 85 -19  1033.4  0.2  758  329           
21 13.02.18 тихо () -0{00}  20000 м    ясно 
-20.9 -22.8 85 -21  1034  0.5  758  332           
03 14.02.18 тихо () -0{01}  20000 м    ясно 
-21.5 -24 80 -22  1035.2  0.7  759  334  -22      51  неравномерный
сухой снег
100% 
15 14.02.18 тихо () -0{01}  20000 м  в посл. час снег  10/0 средняя 
[Ac As]
-9.4 -12.9 76 -9  1035.5  0.2  760  318    -8.1  0.0     
21 14.02.18 240 (ЮЗ) 1-1{02}  20000 м    ясно 
-11.7 -13.7 85 -12  1036.4  760  321           
03 15.02.18 240 (ЮЗ) 1-1{02}  10 км  слаб. снег  10/0 средняя 
[Ac As]
-12.4 -14.4 85 -12  1036.9  0.7  761  322  -12.7    0.0  51  неравномерный
сухой снег
100% 
18 15.02.18 тихо () -0{02}  20000 м    ясно 
-12.7 -14 90 -13  1039.8  0.4  763  324           
21 15.02.18 тихо () -0{01}  20000 м    ясно 
-14.3 -17 80 -14  1040.2  0.3  763  326           
03 16.02.18 тихо () -0{02}  20000 м    ясно 
-18 -20.6 80 -18  1041.2  0.4  763  331  -18.1      51  неравномерный
сухой снег
100% 
15 16.02.18 190 (Ю) 2-4{05}  20000 м    4/0 верхняя 
[Ci fib]
-8.7 -14.6 62 -10  1038.4  -0.7  762  318    -5.1       
03 17.02.18 180 (Ю) 3-4{05}  4000 м  слаб. снег  10/0 средняя 
[As op]
-9.3 -10.9 88 -12  1034.9  -0.6  759  318  -9.9    0.5  51  неравномерный
сухой снег
100% 
15 17.02.18 200 (Ю) 4-6{07}  4000 м  слаб. ливневой снег  10/10 300 м кучево-дожд. 
[Cb cap]
-5.1 -7.6 83 -8  1032.9  -0.3  758  312    -4.2  0.5     
03 18.02.18 190 (Ю) 2-3{05}  20000 м    10/0 средняя, верхняя 
[Ac trans|Ci fib]
-10.1 -12.9 80 -12  1031.8  -0.3  757  318  -10.1    0.0  51  неравномерный
сухой снег
100% 
Время (UTC), дата Ветер
(°,м/с) 
Видим.   Явления Облачность Т
(°С)
Тd
(°С)
f(%) Тe
(°С)
Pmin
(гПа)
dP
(гПа)
Po
(мм)
O2
(г/м3)
Тmin Tmax R s Состояние
почвы

Для получения пояснительной информации подведите курсор к названию столбца.

ПОГОДА в Кирсе - архив

Всё, что Вы хотите узнать о погоде в Кирсе - удобно и подробно!

Выберите нужную дату (начиная с 1 января 2015* года) и нажмите кнопку "Найти".
Будут отображены архивные сводки погоды по пункту Кирс, начиная с указанной даты.


Отображать данные в формате CSV (для использования в таблицах Excel)


Внимание! Наш архив погоды предназначен исключительно для личного некоммерческого использования в познавательных целях. Если Вам необходимы официальные справки о состоянии погоды (для производственных, юридических, коммерческих и т.п. целей), обращайтесь в органы Росгидромета.

*Примечание: данная дата относится к архиву по метеостанциям СССР (Россия, СНГ, Балтия).
Архив по метеостанциям Зарубежной Европы и Азии (кроме Китая) хранится 10 дней, по другим регионам земного шара (Китай, Африка, Америка, Австралия, Океания) - 1 день.

Кирс - район местоположения метеостанции


Название, широта, долгота, высота метеостанции:
Кирс 59.4°ш. 52.2°д. 169 м над ур. моря [Российская Федерация]

Дополнительная информация

В oтличие oт бoльшинства пoгoдных сайтoв мы публикуем пoдрoбную метеoинфoрмацию в детальнoм прoфессиoнальнoм фoрмате.

Характеристики температуры и влажнoсти вoздуха измеряются на высoте 2 м в тени вдали oт зданий и деревьев.
Скoрoсть ветра измеряется на высoте 10 м (на урoвне рoста челoвека скoрoсть ветра ниже в 1.5-2 раза). Если метеoстанция нахoдится в гoрoде или в лесу, тo скoрoсть ветра занижена на 2-4 м/с пo сравнению с oткрытым местoм. Скoрoсть ветра над акватoриями крупных рек и oзёр, а также на вершинах хoлмoв на 2-5 м/с выше, чем в oбычных услoвиях.
Атмoсфернoе давление в разных тoчках местнoсти мoжет значительнo oтличаться oт давления на метеoстанции, в зависимoсти oт услoвий рельефа (при пoдъёме на 10 м давление пoнижается примернo на 1 мм рт.ст.).